Regional Weather Roundup
Issued by NWS

Home | Current Version | Previous Version | Graphics & Text | Print | Product List | Glossary On
Versions: 1 2 3 4 5 6 7 8 9 10 11 12 13 14 15 16 17 18 19 20 21 22 23 24 25 26 27 28 29 30 31 32 33 34 35 36 37 38 39 40 41 42 43 44 45 46 47 48 49 50
000
ASUS43 KLMK 292110
RWRKY
KENTUCKY REGIONAL WEATHER ROUNDUP
NATIONAL WEATHER SERVICE LOUISVILLE KY
500 PM EDT MON JUN 29 2015

NOTE "FAIR" INDICATES FEW OR NO CLOUDS BELOW 12,000 FEET
WITH NO SIGNIFICANT WEATHER AND/OR OBSTRUCTIONS TO VISIBILITY.

KYZ001>023-026-027-061>063-070>075-292200-
WESTERN AND SOUTH CENTRAL KENTUCKY

CITY           SKY/WX    TMP DP  RH WIND       PRES   REMARKS
PADUCAH        MOSUNNY   89  68  49 NW8       29.84S HX  93
HENDERSON      MOSUNNY   84  66  54 W15       29.82S
OWENSBORO      MOSUNNY   85  67  54 NW14      29.82S
HOPKINSVILLE   DRIZZLE   82  70  65 SW15      29.84F
BOWLING GREEN  MOSUNNY   87  68  52 W15G22    29.82F HX  90
GLASGOW        MOSUNNY   81  69  65 SW13      29.81F
$$

KYZ024-025-028>034-038-045-046-053-292200-
NORTH CENTRAL KENTUCKY

CITY           SKY/WX    TMP DP  RH WIND       PRES   REMARKS
LOUISVILLE/SDF PTSUNNY   84  67  56 NW16G24   29.77F
LOUISVILLE/LOU MOSUNNY   83  68  60 W9G18     29.78F
FORT KNOX      PTSUNNY   81  69  66 SW13      29.78F
$$

KYZ035>037-039>044-047>052-055>060-089>105-292200-
NORTHEAST KENTUCKY

CITY           SKY/WX    TMP DP  RH WIND       PRES   REMARKS
LEXINGTON      TSTM      65  62  90 SW15G31   29.86R FOG
COVINGTON      PTSUNNY   79  66  64 VRB6      29.77F
FRANKFORT      PTSUNNY   71  65  81 SW8       29.80F
$$

KYZ054-064>069-076>088-106>120-292200-
SOUTHEAST KENTUCKY

CITY           SKY/WX    TMP DP  RH WIND       PRES   REMARKS
JACKSON        MOSUNNY   76  67  73 VRB5      29.86F
LONDON         MOSUNNY   81  62  52 SW9       29.86F
SOMERSET       TSTM      72  63  73 NW5       29.86R
MIDDLESBORO    SUNNY     82  65  54 S5        29.89F
MONTICELLO     PTCLDY    81  67  62 SW12G28   29.87S
$$



USA.gov is the U.S. government's official web portal to all federal, state and local government web resources and services.